Skip Page Navigation
NASA JPL Caltech
NASA Logo - Jet Propulsion Laboratory + View the NASA Portal
+ Near-Earth Object (NEO) Program
Search JPL
JPL Home Earth Solar System Stars & Galaxies Technology
JPL Solar System Dynamics
BODIES ORBITS EPHEMERIDES TOOLS PHYSICAL DATA DISCOVERY FAQ SITE MAP
JPL Small-Body Database Browser
Search: [ help ]  
21438 Camibarnett (1998 FP122)
Classification: Main-belt Asteroid          SPK-ID: 2021438
Ephemeris | Orbit Diagram | Orbital Elements | Physical Parameters | Discovery Circumstances | Close-Approach Data ]

[ show orbit diagram ]
Orbital Elements at Epoch 2457000.5 (2014-Dec-09.0) TDB
Reference: JPL 9 (heliocentric ecliptic J2000)
 Element Value Uncertainty (1-sigma)   Units 
e .08259140375207304 5.3568e-08  
a 2.415014254499331 1.3962e-08 AU
q 2.215554837138965 1.3227e-07 AU
i 2.684431341938292 5.8547e-06 deg
node 156.2959544861319 0.00010768 deg
peri 177.5483894681461 0.00011264 deg
M 25.38424283495324 3.2293e-05 deg
tp 2456903.841580936478
(2014-Sep-03.34158094)
0.0001229 JED
period 1370.812243213874
3.75
1.1888e-05
3.255e-08
d
yr
n .2626180221121886 2.2775e-09 deg/d
Q 2.614473671859697 1.5116e-08 AU
  Orbit Determination Parameters
   # obs. used (total)      814  
   data-arc span      7487 days (20.50 yr)  
   first obs. used      1994-03-04  
   last obs. used      2014-09-02  
   planetary ephem.      DE431  
   SB-pert. ephem.      SB431-BIG16  
   condition code      0  
   fit RMS      .54066  
   data source      ORB  
   producer      Otto Matic  
   solution date      2014-Sep-12 14:14:43  

Additional Information
 Earth MOID = 1.20586 AU 
 T_jup = 3.511 
[ show covariance matrix ]

Ephemeris | Orbit Diagram | Orbital Elements | Physical Parameters | Discovery Circumstances | Close-Approach Data ]

Physical Parameter Table
Parameter Symbol Value Units Sigma Reference Notes
absolute magnitude H 14.6 mag n/a MPO302196  

21438 Camibarnett           Discovered 1998 Mar. 20 by the Lincoln Laboratory Near-Earth Asteroid Research Team at Socorro.
Camille Barnett mentored a finalist in the 2005 Intel Science Talent Search, a science competition for high school seniors. She teaches at the Charles W. Flanagan High School, Pembroke Pines, Florida.
NOTE: some special characters may not display properly (any characters within {} are an attempt to place the proper accent above a character)
Reference: 20050224/MPCPages.arcLast Updated: 2005-02-28

[ show close-approach data ]
Alternate Designations
 1998 FP122 = 1999 RH135 
Ephemeris | Orbit Diagram | Orbital Elements | Physical Parameters | Discovery Circumstances | Close-Approach Data ]
ABOUT SSD CREDITS/AWARDS PRIVACY/COPYRIGHT GLOSSARY LINKS
FirstGov 2014-Sep-23 14:22 UT
(server date/time)  
NASA Home Page
Site Manager:   Donald K. Yeomans
Webmaster  Alan B. Chamberlin